EW9362 Weather Reports


Display with metric or nautical units.
time (UTC)temp
F
wind
direction
speed
MPH
gust
MPH
rain 1hr
in
rain 24hr
in
rain mn
in
humidity
%
barometer
mb
20260905145031 80 144 3.0 10.0 0.00 0.03 0.03 75 1014.8
20260905144559 80 159 5.0 10.0 0.00 0.03 0.03 76 1014.6
20260905144031 79 170 4.0 10.0 0.00 0.03 0.03 76 1014.7
20260905143528 79 128 4.0 8.0 0.00 0.03 0.03 77 1014.8
20260905143102 79 140 2.0 10.0 0.00 0.03 0.03 80 1014.9
20260905142533 78 143 3.0 10.0 0.01 0.03 0.03 81 1014.7
20260905142028 78 138 3.0 10.0 0.02 0.03 0.03 80 1014.7
20260905141558 77 0 2.0 8.0 0.02 0.03 0.03 84 1014.9
20260905141029 77 115 2.0 5.0 0.02 0.03 0.03 85 1014.8
20260905140531 76 155 2.0 8.0 0.02 0.03 0.03 86 1014.8
20260905135527 75 191 2.0 7.0 0.02 0.03 0.03 87 1015.1
20260905135029 75 0 2.0 8.0 0.02 0.03 0.03 87 1015.1
20260905134559 75 157 3.0 8.0 0.02 0.03 0.03 87 1015.2
20260905134031 75 157 1.0 4.0 0.02 0.03 0.03 87 1015.1
20260905133530 75 145 0.0 7.0 0.02 0.03 0.03 88 1015.5
20260905133058 75 0 1.0 7.0 0.02 0.03 0.03 87 1015.8
20260905132530 75 102 1.0 5.0 0.01 0.02 0.02 86 1015.6
20260905132028 76 124 0.0 5.0 0.00 0.01 0.01 86 1015.7
20260905131557 75 0 1.0 5.0 0.00 0.01 0.01 86 1015.7
20260905131027 75 158 0.0 5.0 0.00 0.01 0.01 87 1015.4
20260905130529 74 31 0.0 10.0 0.00 0.01 0.01 87 1015.3
20260905130058 74 20 1.0 10.0 0.00 0.01 0.01 88 1015.2
20260905125530 74 110 2.0 8.0 0.00 0.01 0.01 88 1015.1
20260905125027 74 123 0.0 7.0 0.00 0.01 0.01 89 1015.4
20260905124600 74 120 2.0 7.0 0.01 0.01 0.01 89 1015.1
20260905124034 74 192 1.0 5.0 0.01 0.01 0.01 90 1015.2
20260905123527 74 117 0.0 5.0 0.01 0.01 0.01 90 1014.4
20260905123052 74 137 1.0 5.0 0.01 0.01 0.01 89 1014.2
20260905122528 74 158 1.0 3.0 0.01 0.01 0.01 89 1014.3
20260905122028 74 155 1.0 3.0 0.01 0.01 0.01 89 1014.5
20260905121600 74 0 0.0 1.0 0.01 0.01 0.01 89 1014.7
20260905121030 74 0 0.0 5.0 0.01 0.01 0.01 89 1014.4
20260905120529 74 0 1.0 5.0 0.01 0.01 0.01 88 1014.5
20260905120109 75 177 2.0 7.0 0.01 0.01 0.01 87 1014.2
20260905115527 75 0 0.0 7.0 0.01 0.01 0.01 87 1014.5
20260905115031 76 0 2.0 7.0 0.01 0.01 0.01 86 1014.3
20260905114607 77 157 2.0 5.0 0.00 0.00 0.00 83 1014.1
20260905114027 77 160 0.0 3.0 0.00 0.00 0.00 82 1014.0
20260905113533 77 0 0.0 3.0 0.00 0.00 0.00 82 1013.8
20260905113058 77 181 1.0 5.0 0.00 0.00 0.00 82 1013.8
20260905112530 77 146 0.0 5.0 0.00 0.00 0.00 83 1013.9
20260905112030 77 130 1.0 5.0 0.00 0.00 0.00 83 1013.9
20260905111633 77 0 0.0 3.0 0.00 0.00 0.00 84 1013.9
20260905111030 77 0 1.0 3.0 0.00 0.00 0.00 85 1013.7
20260905110529 77 0 0.0 5.0 0.00 0.00 0.00 86 1013.9
20260905110056 77 145 1.0 5.0 0.00 0.00 0.00 87 1013.8
20260905105532 76 122 0.0 1.0 0.00 0.00 0.00 90 1013.8
20260905105027 77 0 0.0 0.0 0.00 0.00 0.00 89 1013.0
20260905104556 77 0 0.0 0.0 0.00 0.00 0.00 89 1012.9
20260905104028 77 0 0.0 0.0 0.00 0.00 0.00 89 1012.9
20260905103531 77 0 0.0 0.0 0.00 0.00 0.00 89 1012.8
20260905103101 77 0 0.0 0.0 0.00 0.00 0.00 88 1012.8
20260905102528 77 0 0.0 0.0 0.00 0.00 0.00 88 1012.6
20260905102030 77 0 0.0 0.0 0.00 0.00 0.00 88 1012.5
20260905101601 78 0 0.0 0.0 0.00 0.00 0.00 87 1012.7
20260905101028 78 0 0.0 0.0 0.00 0.00 0.00 87 1012.8
20260905100529 78 0 0.0 0.0 0.00 0.00 0.00 87 1012.8
20260905095530 78 0 0.0 0.0 0.00 0.00 0.00 87 1012.8
20260905095032 78 0 0.0 0.0 0.00 0.00 0.00 87 1012.9
20260905094554 78 0 0.0 0.0 0.00 0.00 0.00 87 1012.9
20260905094028 78 158 0.0 0.0 0.00 0.00 0.00 87 1012.9
20260905093528 78 0 0.0 0.0 0.00 0.00 0.00 86 1012.8
20260905093107 79 0 0.0 0.0 0.00 0.00 0.00 86 1012.7
20260905092533 79 0 0.0 0.0 0.00 0.00 0.00 85 1012.7
20260905092029 79 0 0.0 0.0 0.00 0.00 0.00 85 1012.5
20260905091546 79 0 0.0 1.0 0.00 0.00 0.00 84 1012.6
20260905091030 79 0 0.0 2.0 0.00 0.00 0.00 85 1012.7
20260905090529 79 150 0.0 2.0 0.00 0.00 0.00 84 1012.6
20260905090047 79 87 0.0 4.0 0.00 0.00 0.00 85 1012.6
20260905085529 79 0 1.0 4.0 0.00 0.00 0.00 85 1012.6
20260905085031 79 40 0.0 2.0 0.00 0.00 0.00 85 1012.6
20260905084558 79 0 0.0 0.0 0.00 0.00 0.00 84 1012.3
20260905084028 79 0 0.0 0.0 0.00 0.00 0.00 84 1012.3
20260905083531 79 0 0.0 0.0 0.00 0.00 0.00 84 1012.2
20260905083053 79 0 0.0 1.0 0.00 0.00 0.00 84 1012.4
20260905082527 80 0 0.0 1.0 0.00 0.00 0.00 83 1012.4
20260905082028 80 0 0.0 6.0 0.00 0.00 0.00 83 1012.5
20260905081546 80 0 3.0 6.0 0.00 0.00 0.00 83 1012.5
20260905081033 80 0 0.0 8.0 0.00 0.00 0.00 83 1012.4
20260905080530 80 184 1.0 8.0 0.00 0.00 0.00 83 1012.3
20260905080048 79 347 1.0 5.0 0.00 0.00 0.00 84 1012.5
20260905075529 80 0 0.0 0.0 0.00 0.00 0.00 81 1012.1
20260905075027 80 0 0.0 0.0 0.00 0.00 0.00 79 1012.1
20260905074545 81 0 0.0 0.0 0.00 0.00 0.00 79 1012.2
20260905074030 81 0 0.0 0.0 0.00 0.00 0.00 78 1012.3
20260905073529 81 0 0.0 3.0 0.00 0.00 0.00 78 1012.3
20260905073053 82 0 0.0 3.0 0.00 0.00 0.00 76 1012.3
20260905072529 81 224 0.0 0.0 0.00 0.00 0.00 77 1012.6
20260905072029 81 168 0.0 0.0 0.00 0.00 0.00 77 1012.6
20260905071550 81 0 0.0 0.0 0.00 0.00 0.00 78 1012.5
20260905071028 81 0 0.0 0.0 0.00 0.00 0.00 78 1012.6
20260905070534 81 0 0.0 0.0 0.00 0.00 0.00 79 1012.6
20260905065528 81 0 0.0 0.0 0.00 0.00 0.00 80 1012.8
20260905065027 81 0 0.0 0.0 0.00 0.00 0.00 80 1012.8
20260905064611 82 0 0.0 0.0 0.00 0.00 0.00 78 1012.8
20260905064030 82 0 0.0 0.0 0.00 0.00 0.00 77 1013.1
20260905063531 82 0 0.0 0.0 0.00 0.00 0.00 77 1013.1
20260905063052 81 0 0.0 0.0 0.00 0.00 0.00 78 1013.2
20260905062530 81 0 0.0 0.0 0.00 0.00 0.00 79 1013.2
20260905062029 81 0 0.0 0.0 0.00 0.00 0.00 79 1013.3
20260905061547 81 164 0.0 3.0 0.00 0.00 0.00 80 1013.4
20260905061027 82 0 0.0 3.0 0.00 0.00 0.00 78 1013.5
20260905060528 82 160 1.0 3.0 0.00 0.00 0.00 78 1013.6
20260905060056 82 158 0.0 3.0 0.00 0.00 0.00 78 1013.6
20260905055529 82 172 1.0 3.0 0.00 0.00 0.00 77 1013.6
20260905055032 82 170 1.0 3.0 0.00 0.00 0.00 78 1013.7
20260905054554 82 187 1.0 3.0 0.00 0.00 0.00 76 1013.7
20260905054030 82 198 0.0 4.0 0.00 0.00 0.00 76 1013.7
20260905053528 82 0 1.0 4.0 0.00 0.00 0.00 76 1013.7
20260905053100 82 180 0.0 4.0 0.00 0.00 0.00 77 1013.7
20260905052529 83 178 2.0 4.0 0.00 0.00 0.00 76 1013.8
20260905052030 82 214 1.0 4.0 0.00 0.00 0.00 77 1013.7
20260905051602 82 189 0.0 2.0 0.00 0.00 0.00 78 1013.7
20260905051029 82 0 0.0 3.0 0.00 0.00 0.00 79 1013.7
20260905050529 81 176 0.0 3.0 0.00 0.00 0.00 79 1013.7
20260905050057 81 171 0.0 2.0 0.00 0.00 0.00 79 1013.8
20260905045528 81 0 0.0 1.0 0.00 0.00 0.00 80 1013.8
20260905045029 81 161 0.0 0.0 0.00 0.00 0.00 79 1013.9
20260905044558 81 0 0.0 0.0 0.00 0.00 0.00 80 1013.9
20260905044027 81 0 0.0 0.0 0.00 0.00 0.00 79 1013.9
20260905043530 81 0 0.0 0.0 0.00 0.00 0.00 79 1013.9
20260905043104 81 0 0.0 0.0 0.00 0.00 0.00 79 1013.9
20260905042528 81 0 0.0 0.0 0.00 0.00 0.00 78 1013.9
20260905042028 81 0 0.0 0.0 0.00 0.00 0.00 78 1013.8
20260905041600 81 0 0.0 0.0 0.00 0.00 0.00 78 1013.8
20260905041028 81 0 0.0 0.0 0.00 0.00 0.00 79 1013.7
20260905040530 82 0 0.0 0.0 0.00 0.00 0.00 77 1013.7
20260905040100 82 0 0.0 0.0 0.00 0.00 0.00 76 1013.7
20260905035529 82 0 0.0 0.0 0.00 0.00 0.00 76 1013.7
20260905035028 82 0 0.0 0.0 0.00 0.00 0.00 76 1013.7
20260905034607 82 0 0.0 0.0 0.00 0.00 0.00 76 1013.8
20260905034027 82 0 0.0 0.0 0.00 0.00 0.00 76 1013.7
20260905033530 82 0 0.0 0.0 0.00 0.00 0.00 76 1013.9
20260905033051 82 0 0.0 0.0 0.00 0.00 0.00 75 1013.7
20260905032530 82 0 0.0 0.0 0.00 0.00 0.00 76 1013.8
20260905032032 82 0 0.0 0.0 0.00 0.00 0.00 76 1013.9
20260905031559 83 0 0.0 0.0 0.00 0.00 0.00 75 1013.9
20260905031032 83 0 0.0 0.0 0.00 0.00 0.00 75 1013.9
20260905030529 83 0 0.0 0.0 0.00 0.00 0.00 75 1014.0
20260905030116 83 0 0.0 0.0 0.00 0.00 0.00 76 1014.0
20260905025528 83 0 0.0 0.0 0.00 0.00 0.00 74 1014.0
20260905025032 83 0 0.0 0.0 0.00 0.00 0.00 73 1014.0
20260905024552 83 0 0.0 0.0 0.00 0.00 0.00 73 1014.0
20260905024032 83 0 0.0 0.0 0.00 0.00 0.00 73 1014.0
20260905023531 83 0 0.0 0.0 0.00 0.00 0.00 74 1013.7
20260905023101 83 0 0.0 0.0 0.00 0.00 0.00 73 1013.8
20260905022529 84 0 0.0 0.0 0.00 0.00 0.00 73 1013.8
20260905022029 84 0 0.0 0.0 0.00 0.00 0.00 72 1013.9
20260905021559 84 0 0.0 0.0 0.00 0.00 0.00 71 1013.8
20260905021028 84 0 0.0 0.0 0.00 0.00 0.00 71 1013.7
20260905020528 84 0 0.0 0.0 0.00 0.00 0.00 73 1013.7
20260905020106 84 0 0.0 0.0 0.00 0.00 0.00 73 1013.7
20260905015531 85 0 0.0 0.0 0.00 0.00 0.00 72 1013.7
20260905015031 85 0 0.0 0.0 0.00 0.00 0.00 71 1013.6
20260905014559 85 0 0.0 0.0 0.00 0.00 0.00 70 1013.6
20260905014031 86 0 0.0 0.0 0.00 0.00 0.00 68 1013.6
20260905013532 86 0 0.0 0.0 0.00 0.00 0.00 69 1013.5
20260905013053 86 0 0.0 0.0 0.00 0.00 0.00 70 1013.5
20260905012530 86 0 0.0 0.0 0.00 0.00 0.00 69 1013.4
20260905012029 86 0 0.0 0.0 0.00 0.00 0.00 68 1013.3
20260905011606 87 0 0.0 0.0 0.00 0.00 0.00 67 1013.3
20260905011032 87 0 0.0 0.0 0.00 0.00 0.00 66 1013.2
20260905010529 87 0 0.0 0.0 0.00 0.00 0.00 66 1013.3
20260905010059 87 0 0.0 0.0 0.00 0.00 0.00 66 1013.2
20260905005529 88 0 0.0 0.0 0.00 0.00 0.00 66 1013.2
20260905005029 88 0 0.0 0.0 0.00 0.00 0.00 65 1013.1
20260905004555 89 0 0.0 0.0 0.00 0.00 0.00 65 1013.1
20260905004029 89 0 0.0 0.0 0.00 0.00 0.00 64 1013.2
20260905003531 89 0 0.0 0.0 0.00 0.00 0.00 64 1013.1
20260905003052 90 0 0.0 0.0 0.00 0.00 0.00 62 1012.9
20260905002529 90 0 0.0 1.0 0.00 0.00 0.00 61 1012.9
20260905002030 90 0 0.0 1.0 0.00 0.00 0.00 61 1012.8
20260905001608 90 0 0.0 0.0 0.00 0.00 0.00 61 1012.8
20260905001028 91 0 0.0 2.0 0.00 0.00 0.00 61 1012.9
20260905000529 91 0 0.0 2.0 0.00 0.00 0.00 59 1012.7
20260905000104 92 0 0.0 4.0 0.00 0.00 0.00 58 1012.5
20260904235531 92 176 1.0 4.0 0.00 0.00 0.00 58 1012.5
20260904235028 92 176 0.0 3.0 0.00 0.00 0.00 60 1012.6
20260904234605 91 155 0.0 2.0 0.00 0.00 0.00 61 1012.6
20260904234031 93 0 0.0 0.0 0.00 0.00 0.00 58 1012.6
20260904233531 94 0 0.0 0.0 0.00 0.00 0.00 56 1012.9
20260904233057 94 0 0.0 0.0 0.00 0.00 0.00 55 1013.0
20260904232532 94 0 0.0 0.0 0.00 0.00 0.00 55 1012.9
20260904232031 95 0 0.0 0.0 0.00 0.00 0.00 51 1012.9
20260904231557 95 0 0.0 0.0 0.00 0.00 0.00 53 1013.0
20260904231035 96 0 0.0 2.0 0.00 0.00 0.00 49 1013.1
20260904230529 96 0 0.0 3.0 0.00 0.00 0.00 51 1013.2
20260904230058 96 0 0.0 3.0 0.00 0.00 0.00 49 1013.1
20260904225531 96 23 0.0 3.0 0.00 0.00 0.00 49 1013.1
20260904225031 97 0 0.0 3.0 0.00 0.00 0.00 49 1013.1
20260904224552 97 0 0.0 3.0 0.00 0.00 0.00 49 1013.3
20260904224032 96 0 1.0 4.0 0.00 0.00 0.00 50 1013.3
20260904223528 96 10 1.0 6.0 0.00 0.00 0.00 49 1013.3
20260904223052 96 0 1.0 6.0 0.00 0.00 0.00 49 1013.2
20260904222531 96 17 2.0 6.0 0.00 0.00 0.00 49 1013.2
20260904222032 96 88 1.0 7.0 0.00 0.00 0.00 49 1013.4
20260904221605 96 0 3.0 7.0 0.00 0.00 0.00 49 1013.3
20260904221033 96 49 2.0 5.0 0.00 0.00 0.00 51 1013.3
20260904220529 96 36 3.0 5.0 0.00 0.00 0.00 50 1013.2
20260904220110 96 65 1.0 4.0 0.00 0.00 0.00 50 1013.2
20260904215531 95 22 0.0 2.0 0.00 0.00 0.00 51 1013.2
20260904215028 94 0 0.0 1.0 0.00 0.00 0.00 52 1013.2
20260904214556 94 0 0.0 3.0 0.00 0.00 0.00 51 1013.3
20260904214031 95 0 0.0 3.0 0.00 0.00 0.00 51 1013.3
20260904213530 95 45 0.0 3.0 0.00 0.00 0.00 51 1013.3
20260904213051 94 0 0.0 2.0 0.00 0.00 0.00 51 1013.3
20260904212532 94 0 0.0 2.0 0.00 0.00 0.00 52 1013.3
20260904212031 95 60 0.0 4.0 0.00 0.00 0.00 50 1013.5
20260904211553 95 0 1.0 4.0 0.00 0.00 0.00 50 1013.3
20260904211030 95 23 1.0 3.0 0.00 0.00 0.00 49 1013.3
20260904210531 95 349 1.0 6.0 0.00 0.00 0.00 49 1013.3
20260904205530 95 9 4.0 8.0 0.00 0.00 0.00 49 1013.5
20260904205033 96 38 3.0 7.0 0.00 0.00 0.00 49 1013.5
20260904204547 96 0 0.0 5.0 0.00 0.00 0.00 50 1013.5
20260904204031 96 59 1.0 6.0 0.00 0.00 0.00 48 1013.5
20260904203532 96 23 2.0 6.0 0.00 0.00 0.00 49 1013.6
20260904203100 96 352 2.0 6.0 0.00 0.00 0.00 49 1013.7
20260904202533 96 330 0.0 10.0 0.00 0.00 0.00 48 1013.7
20260904202034 96 117 4.0 10.0 0.00 0.00 0.00 48 1013.8
20260904201558 97 350 0.0 11.0 0.00 0.00 0.00 48 1014.0
20260904201029 96 79 6.0 11.0 0.00 0.00 0.00 48 1014.1
20260904200532 96 346 5.0 10.0 0.00 0.00 0.00 49 1014.0
20260904200121 97 41 0.0 4.0 0.00 0.00 0.00 48 1014.0
20260904195530 95 0 0.0 4.0 0.00 0.00 0.00 51 1014.3
20260904195031 95 350 1.0 4.0 0.00 0.00 0.00 50 1014.2
20260904194632 95 357 0.0 5.0 0.00 0.00 0.00 51 1014.5
20260904194031 95 73 0.0 5.0 0.00 0.00 0.00 50 1014.5
20260904193531 95 347 3.0 5.0 0.00 0.00 0.00 49 1014.5
20260904193100 96 0 1.0 5.0 0.00 0.00 0.00 48 1014.5
20260904192529 97 0 1.0 10.0 0.00 0.00 0.00 49 1014.6
20260904192029 95 117 1.0 10.0 0.00 0.00 0.00 49 1014.7
20260904191614 96 354 5.0 10.0 0.00 0.00 0.00 49 1014.9
20260904191029 95 51 2.0 10.0 0.00 0.00 0.00 50 1014.9
20260904190531 95 42 5.0 10.0 0.00 0.00 0.00 50 1015.0
20260904190100 96 354 1.0 8.0 0.00 0.00 0.00 49 1015.0
20260904185531 96 0 1.0 10.0 0.00 0.00 0.00 50 1015.0
20260904185029 95 0 3.0 10.0 0.00 0.00 0.00 49 1015.0
20260904184608 96 34 5.0 11.0 0.00 0.00 0.00 48 1015.1
20260904184030 96 13 4.0 11.0 0.00 0.00 0.00 48 1015.1
20260904183530 97 74 6.0 9.0 0.00 0.00 0.00 48 1015.3
20260904183057 98 6 1.0 6.0 0.00 0.00 0.00 45 1015.1
20260904182536 98 0 1.0 6.0 0.00 0.00 0.00 46 1015.2
20260904182032 97 0 0.0 6.0 0.00 0.00 0.00 46 1015.4
20260904181555 97 299 2.0 6.0 0.00 0.00 0.00 48 1015.5
20260904181029 96 32 2.0 6.0 0.00 0.00 0.00 48 1015.5
20260904180530 96 239 2.0 9.0 0.00 0.00 0.00 48 1015.6
20260904180100 96 61 2.0 9.0 0.00 0.00 0.00 46 1015.6
20260904175530 97 39 3.0 10.0 0.00 0.00 0.00 46 1015.6
20260904175029 97 60 0.0 10.0 0.00 0.00 0.00 45 1015.7
20260904174558 95 13 4.0 10.0 0.00 0.00 0.00 47 1015.9
20260904174030 96 352 2.0 8.0 0.00 0.00 0.00 47 1015.8
20260904173531 95 68 3.0 10.0 0.00 0.00 0.00 48 1015.9
20260904173104 95 344 4.0 10.0 0.00 0.00 0.00 49 1015.8
20260904172531 96 7 3.0 8.0 0.00 0.00 0.00 49 1015.9
20260904172034 95 357 4.0 8.0 0.00 0.00 0.00 50 1016.0
20260904171558 95 348 4.0 8.0 0.00 0.00 0.00 51 1016.1
20260904171031 96 354 1.0 7.0 0.00 0.00 0.00 51 1016.0
20260904170532 94 38 2.0 11.0 0.00 0.00 0.00 52 1016.0
20260904170057 95 21 2.0 11.0 0.00 0.00 0.00 52 1016.2
20260904165530 94 331 3.0 11.0 0.00 0.00 0.00 51 1016.1
20260904165030 94 34 2.0 8.0 0.00 0.00 0.00 51 1016.1
20260904164600 95 354 3.0 6.0 0.00 0.00 0.00 52 1016.2
20260904164034 95 337 3.0 6.0 0.00 0.00 0.00 53 1016.3
20260904163531 95 319 1.0 6.0 0.00 0.00 0.00 52 1016.1
20260904163104 94 330 2.0 8.0 0.00 0.00 0.00 52 1016.2
20260904162531 94 188 3.0 8.0 0.00 0.00 0.00 53 1016.3
20260904162032 94 328 3.0 8.0 0.00 0.00 0.00 55 1016.1
20260904161548 94 1 2.0 8.0 0.00 0.00 0.00 55 1016.2
20260904161032 93 338 3.0 9.0 0.00 0.00 0.00 55 1016.1
20260904160531 93 0 1.0 9.0 0.00 0.00 0.00 55 1016.2
20260904160101 93 333 2.0 7.0 0.00 0.00 0.00 56 1016.3
20260904155529 94 346 0.0 5.0 0.00 0.00 0.00 55 1016.3
20260904155029 93 326 2.0 5.0 0.00 0.00 0.00 58 1016.2
20260904154614 93 0 0.0 4.0 0.00 0.00 0.00 57 1016.2
20260904154029 92 114 0.0 4.0 0.00 0.00 0.00 60 1016.3
20260904153531 92 11 1.0 4.0 0.00 0.00 0.00 61 1016.3
20260904153056 91 65 2.0 6.0 0.00 0.00 0.00 60 1016.3
20260904152528 91 347 3.0 6.0 0.00 0.00 0.00 60 1016.3
20260904152030 92 360 0.0 3.0 0.00 0.00 0.00 61 1016.4
20260904151611 91 175 0.0 3.0 0.00 0.00 0.00 64 1016.4
20260904151033 90 36 1.0 3.0 0.00 0.00 0.00 63 1016.4
20260904150529 90 340 1.0 3.0 0.00 0.00 0.00 63 1016.5
20260904150057 89 0 0.0 5.0 0.00 0.00 0.00 64 1016.4
20260904145529 89 321 1.0 5.0 0.00 0.00 0.00 66 1016.5